sat.trackr.live / text

‹ back to catalog

COSMOS 2385

NORAD 27056 · 2001-058B

PAYLOAD ACTIVE UNKNOWN

§ Identity

Operator
Country
CIS
Launch date
2001-12-28
Launch site
PLMSC
Launch vehicle
Mass (kg)
RCS (m²)
0.84

External: N2YO · Heavens-Above · Gunter

§ Orbital elements

Epoch: 2026-05-25T04:47:31.133760Z

Period
114.23 min
Inclination
82.5375°
Eccentricity
0.0004941
Mean motion
12.60564996 rev/d
Perigee alt
1,416.8 km
Apogee alt
1,424.5 km
Semi-major
7,798.8 km
B*
6.9943e-4
RAAN
234.5445°
Arg perigee
287.3722°
Mean anomaly
148.2554°
Rev number
12,288

§ Raw data

COSMOS 23851 27056U 01058B   26145.19966590  .00000133  00000+0  69943-3 0  99972 27056  82.5375 234.5445 0004941 287.3722 148.2554 12.60564996122886

JSON: /api/v1/satellites/27056 · /tle

For live sub-satellite position, see the globe view (requires WebGL).

§ Visibility from observer

Set your observer location to see the next 7 days of passes ≥ 10°. The values pass through the URL so the page stays shareable.

No JS? Fill the form by hand. The geolocation button needs JavaScript.